Lamar, CO

3:35 AM MST on January 18, 2018 (GMT -0700)
Lamar Municipal

Weather History for KLAA - April, 2012

Change the Weather History Date:

Sunday, April 29, 2012

  Actual Average Record
Temperature  
Mean Temperature 59 °F 56 °F  
Max Temperature 73 °F 74 °F 93 °F (1967)
Min Temperature 44 °F 40 °F 23 °F (1925)
Degree Days  
Heating Degree Days 6 9  
Month to date heating degree days 246 382  
Since 1 July heating degree days 4862 5391  
Cooling Degree Days 0 0  
Month to date cooling degree days 13 0  
Year to date cooling degree days 18 0  
Growing Degree Days 8 (Base 50)    
Moisture  
Dew Point 44 °F    
Average Humidity 62    
Maximum Humidity 93    
Minimum Humidity 31    
Precipitation  
Precipitation 0.00 in 0.06 in 0.89 in (1960)
Month to date precipitation 1.28  
Year to date precipitation 1.92  
Snow  
Snow 0.00 in - - ()
Month to date snowfall 0.0  
Snow Depth 0.00 in    
Sea Level Pressure  
Sea Level Pressure 29.86 in    
Wind  
Wind Speed 7 mph (ESE)    
Max Wind Speed 23 mph    
Max Gust Speed 28 mph    
Visibility 10 miles    
Events      
T = Trace of Precipitation, MM = Missing Value Source: NWS Daily Summary

Daily Weather History Graph

Daily Weather History Graph

Search for Another Location

Airport or City:

Trip Planner

Search our weather history database for the weather conditions in past years. The results will help you decide how hot, cold, wet, or windy it might be!

Date:

Astronomy

Apr. 29, 2012 Rise Set
Actual Time 5:56 AM MDT 7:40 PM MDT
Civil Twilight 5:27 AM MDT 8:08 PM MDT
Nautical Twilight 4:53 AM MDT 8:43 PM MDT
Astronomical Twilight 4:17 AM MDT 9:19 PM MDT
Moon 12:41 PM MDT (4/29) 1:41 AM MDT (4/29)
Length of Visible Light 14h 40m
Length of Day
13h 44m
First Quarter, 54% of the Moon is Illuminated
Apr 29
First Quarter
May 5
Full
May 12
Last Quarter
May 20
New
May 28
First Quarter

Hourly Weather History & Observations

Time (MDT) Temp. Windchill Dew Point Humidity Pressure Visibility Wind Dir Wind Speed Gust Speed Precip Events Conditions
12:53 AM 45.0 °F 43.5 °F 39.9 °F 82% 29.91 in 10.0 mi ESE 3.5 mph - N/A   Clear
1:53 AM 45.0 °F 42.6 °F 39.9 °F 82% 29.91 in 10.0 mi East 4.6 mph - N/A   Clear
2:53 AM 46.0 °F 43.1 °F 41.0 °F 83% 29.90 in 10.0 mi East 5.8 mph - N/A   Clear
3:53 AM 48.0 °F - 42.1 °F 80% 29.86 in 10.0 mi East 5.8 mph - N/A   Clear
4:53 AM 44.1 °F - 41.0 °F 89% 29.88 in 10.0 mi Calm Calm - N/A   Clear
5:53 AM 46.9 °F - 43.0 °F 86% 29.86 in 10.0 mi ESE 9.2 mph - N/A   Clear
6:53 AM 46.9 °F - 44.1 °F 90% 29.90 in 10.0 mi East 10.4 mph - N/A   Clear
7:53 AM 51.1 °F - 46.9 °F 86% 29.91 in 10.0 mi ESE 6.9 mph - N/A   Scattered Clouds
8:00 AM 51.8 °F - 46.4 °F 82% 29.97 in 10.0 mi SE 8.1 mph - N/A   Mostly Cloudy
8:23 AM 53.6 °F - 46.4 °F 77% 29.97 in 10.0 mi SE 9.2 mph - N/A   Scattered Clouds
8:53 AM 55.9 °F - 46.9 °F 72% 29.90 in 10.0 mi SSE 13.8 mph - N/A   Partly Cloudy
9:53 AM 59.0 °F - 46.9 °F 64% 29.89 in 10.0 mi South 9.2 mph - N/A   Partly Cloudy
10:53 AM 63.0 °F - 46.0 °F 54% 29.89 in 10.0 mi Variable 4.6 mph - N/A   Clear
11:53 AM 64.9 °F - 44.1 °F 47% 29.87 in 10.0 mi SSW 3.5 mph - N/A   Clear
12:53 PM 68.0 °F - 41.0 °F 37% 29.83 in 10.0 mi Calm Calm - N/A   Clear
1:53 PM 72.0 °F - 39.9 °F 31% 29.80 in 10.0 mi Variable 3.5 mph - N/A   Clear
2:53 PM 70.0 °F - 41.0 °F 35% 29.78 in 10.0 mi SSE 6.9 mph - N/A   Clear
3:53 PM 70.0 °F - 39.9 °F 33% 29.76 in 10.0 mi SE 5.8 mph - N/A   Clear
4:53 PM 71.1 °F - 43.0 °F 36% 29.75 in 10.0 mi South 13.8 mph - N/A   Clear
5:53 PM 71.1 °F - 44.1 °F 38% 29.75 in 10.0 mi South 11.5 mph - N/A   Clear
6:53 PM 64.9 °F - 45.0 °F 48% 29.79 in 10.0 mi SSE 11.5 mph - N/A   Clear
7:53 PM 55.9 °F - 46.9 °F 72% 29.81 in 10.0 mi East 6.9 mph - N/A   Clear
8:26 PM 55.4 °F - 46.4 °F 72% 29.87 in 10.0 mi SE 6.9 mph - N/A   Partly Cloudy
8:53 PM 55.0 °F - 48.0 °F 77% 29.81 in 10.0 mi ESE 8.1 mph - N/A   Clear
9:53 PM 52.0 °F - 48.0 °F 86% 29.83 in 10.0 mi East 5.8 mph - N/A   Clear
10:53 PM 50.0 °F - 46.9 °F 89% 29.85 in 10.0 mi NE 10.4 mph - N/A   Clear
11:53 PM 50.0 °F - 46.9 °F 89% 29.84 in 10.0 mi ENE 9.2 mph - N/A   Clear